�������l�o���
Date,Time,MP-1(��Sv/h),MP-2(��Sv/h),MP-3(��Sv/h),MP-4(��Sv/h),MP-5(��Sv/h),MP-6(��Sv/h),MP-7(��Sv/h),MP-8(��Sv/h),����,����(m/s),���J
2019/06/18,00:00,0.743,1.061,0.720,1.322,0.957,0.433,0.745,0.707,���쐼,1.4,��
2019/06/18,00:10,0.743,1.063,0.724,1.324,0.957,0.431,0.748,0.709,���쐼,1.5,��
2019/06/18,00:20,0.743,1.062,0.723,1.322,0.956,0.433,0.746,0.709,�k�k��,0.9,��
2019/06/18,00:30,0.744,1.061,0.723,1.324,0.957,0.431,0.746,0.708,�k�k��,0.9,��
2019/06/18,00:40,0.742,1.061,0.724,1.324,0.957,0.431,0.747,0.710,�k��,1.2,��
2019/06/18,00:50,0.742,1.059,0.723,1.324,0.955,0.431,0.747,0.709,�k�k��,3.1,��
2019/06/18,01:00,0.743,1.062,0.722,1.323,0.957,0.431,0.746,0.708,�k��,5.2,��
2019/06/18,01:10,0.740,1.061,0.725,1.323,0.956,0.431,0.747,0.708,�k�k��,4.8,��
2019/06/18,01:20,0.741,1.061,0.724,1.322,0.955,0.431,0.745,0.710,�k�k��,4.6,��
2019/06/18,01:30,0.741,1.061,0.726,1.321,0.956,0.431,0.747,0.715,�k�k��,3.2,��
2019/06/18,01:40,0.742,1.061,0.724,1.324,0.957,0.432,0.747,0.707,�k,2.6,��
2019/06/18,01:50,0.742,1.060,0.724,1.321,0.958,0.430,0.745,0.709,�k�k��,2.0,��
2019/06/18,02:00,0.739,1.062,0.723,1.323,0.957,0.431,0.746,0.709,�k��,1.5,��
2019/06/18,02:10,0.741,1.061,0.723,1.325,0.956,0.431,0.747,0.710,�k��,2.6,��
2019/06/18,02:20,0.741,1.061,0.723,1.322,0.955,0.429,0.744,0.709,��,2.6,��
2019/06/18,02:30,0.740,1.060,0.722,1.323,0.957,0.429,0.744,0.709,��,2.3,��
2019/06/18,02:40,0.741,1.063,0.722,1.323,0.957,0.431,0.745,0.708,��,2.3,��
2019/06/18,02:50,0.741,1.063,0.723,1.322,0.956,0.432,0.746,0.709,��,1.5,��
2019/06/18,03:00,0.741,1.061,0.723,1.321,0.955,0.430,0.746,0.708,��,1.5,��
2019/06/18,03:10,0.741,1.061,0.724,1.323,0.956,0.430,0.745,0.708,���k��,1.5,��
2019/06/18,03:20,0.741,1.061,0.723,1.322,0.957,0.432,0.746,0.707,���k��,1.2,�L
2019/06/18,03:30,0.739,1.062,0.722,1.322,0.956,0.430,0.748,0.708,��,1.2,�L
2019/06/18,03:40,0.741,1.060,0.721,1.320,0.955,0.429,0.747,0.707,-,CALM,��
2019/06/18,03:50,0.742,1.061,0.725,1.322,0.956,0.429,0.747,0.709,��,0.6,��
2019/06/18,04:00,0.741,1.060,0.722,1.322,0.955,0.432,0.746,0.710,��,0.8,�L
2019/06/18,04:10,0.742,1.059,0.722,1.324,0.955,0.431,0.744,0.708,��,0.9,��
2019/06/18,04:20,0.739,1.061,0.723,1.324,0.956,0.430,0.743,0.708,��쐼,0.9,�L
2019/06/18,04:30,0.741,1.060,0.723,1.324,0.956,0.431,0.744,0.710,��,0.6,��
2019/06/18,04:40,0.743,1.061,0.724,1.324,0.956,0.429,0.745,0.707,��,0.9,��
2019/06/18,04:50,0.742,1.060,0.723,1.322,0.958,0.431,0.745,0.709,��,1.2,��
2019/06/18,05:00,0.742,1.060,0.724,1.321,0.956,0.431,0.745,0.708,�쐼,1.2,�L
2019/06/18,05:10,0.741,1.060,0.723,1.321,0.959,0.429,0.745,0.708,���쐼,1.2,�L
2019/06/18,05:20,0.741,1.063,0.724,1.322,0.959,0.429,0.745,0.711,��,0.9,�L
2019/06/18,05:30,0.742,1.062,0.723,1.324,0.957,0.430,0.747,0.709,��,0.9,��
2019/06/18,05:40,0.741,1.061,0.725,1.322,0.956,0.430,0.748,0.709,���k��,0.6,��
2019/06/18,05:50,0.741,1.059,0.725,1.323,0.957,0.431,0.746,0.710,�k�k��,0.6,��
2019/06/18,06:00,0.742,1.059,0.724,1.324,0.958,0.431,0.744,0.708,�k��,0.9,��
2019/06/18,06:10,0.740,1.063,0.724,1.322,0.958,0.431,0.745,0.709,���k��,1.2,��
2019/06/18,06:20,0.741,1.060,0.725,1.323,0.959,0.430,0.746,0.710,�k��,0.9,��
2019/06/18,06:30,0.741,1.064,0.727,1.324,0.956,0.430,0.746,0.708,��,1.4,��
2019/06/18,06:40,0.743,1.060,0.723,1.324,0.958,0.430,0.745,0.709,���k��,0.6,��
2019/06/18,06:50,0.741,1.063,0.723,1.325,0.958,0.430,0.744,0.710,�쓌,0.9,��
2019/06/18,07:00,0.744,1.062,0.723,1.324,0.955,0.429,0.743,0.709,-,CALM,��
2019/06/18,07:10,0.744,1.061,0.725,1.323,0.956,0.431,0.746,0.709,���쐼,0.9,��
2019/06/18,07:20,0.743,1.061,0.724,1.324,0.957,0.431,0.743,0.708,��쐼,0.9,��
2019/06/18,07:30,0.741,1.059,0.723,1.327,0.957,0.429,0.744,0.709,���쐼,1.7,��
2019/06/18,07:40,0.741,1.059,0.724,1.323,0.957,0.430,0.747,0.707,�쐼,1.5,��
2019/06/18,07:50,0.740,1.060,0.722,1.324,0.957,0.429,0.745,0.707,��,2.8,��
2019/06/18,08:00,0.740,1.058,0.722,1.323,0.959,0.429,0.746,0.706,��,3.1,��
2019/06/18,08:10,0.742,1.060,0.723,1.323,0.957,0.429,0.746,0.708,��,3.5,��
2019/06/18,08:20,0.739,1.057,0.720,1.324,0.958,0.430,0.747,0.707,��쓌,4.8,��
2019/06/18,08:30,0.742,1.059,0.721,1.321,0.956,0.430,0.746,0.705,��쓌,4.0,��
2019/06/18,08:40,0.742,1.058,0.723,1.321,0.957,0.428,0.746,0.706,��쓌,3.9,��
2019/06/18,08:50,0.743,1.059,0.722,1.325,0.958,0.428,0.746,0.706,��쓌,3.9,��
2019/06/18,09:00,0.742,1.061,0.722,1.325,0.956,0.429,0.746,0.707,��쓌,3.7,��
2019/06/18,09:10,0.744,1.062,0.724,1.326,0.958,0.430,0.746,0.708,��쓌,4.0,��
2019/06/18,09:20,0.744,1.060,0.723,1.323,0.958,0.430,0.745,0.707,�쓌,4.0,��
2019/06/18,09:30,0.744,1.063,0.721,1.322,0.958,0.430,0.745,0.707,�쓌,4.5,��
2019/06/18,09:40,0.743,1.063,0.722,1.325,0.961,0.431,0.747,0.707,�쓌,5.4,��
2019/06/18,09:50,0.745,1.062,0.724,1.327,0.959,0.431,0.746,0.708,��쓌,7.5,��
2019/06/18,10:00,0.742,1.063,0.723,1.327,0.961,0.431,0.747,0.709,��쓌,7.8,��
2019/06/18,10:10,0.744,1.063,0.723,1.325,0.959,0.433,0.748,0.708,��쓌,9.5,��
2019/06/18,10:20,0.745,1.064,0.724,1.326,0.961,0.430,0.748,0.709,��쓌,9.3,��
2019/06/18,10:30,0.745,1.067,0.724,1.326,0.963,0.432,0.749,0.707,��쓌,9.2,��
2019/06/18,10:40,0.745,1.064,0.725,1.325,0.960,0.431,0.748,0.708,��쓌,10.3,��
2019/06/18,10:50,0.745,1.066,0.724,1.323,0.960,0.432,0.748,0.709,��쓌,10.7,��
2019/06/18,11:00,0.746,1.066,0.726,1.324,0.961,0.432,0.747,0.708,��쓌,10.0,��
2019/06/18,11:10,0.747,1.065,0.724,1.324,0.962,0.433,0.747,0.708,��쓌,10.5,��
2019/06/18,11:20,0.747,1.067,0.725,1.325,0.962,0.431,0.748,0.709,��쓌,9.7,��
2019/06/18,11:30,0.746,1.069,0.725,1.326,0.963,0.433,0.749,0.707,��쓌,11.0,��
2019/06/18,11:40,0.748,1.066,0.725,1.325,0.964,0.433,0.748,0.708,��쓌,12.8,��
2019/06/18,11:50,0.747,1.067,0.727,1.325,0.964,0.432,0.749,0.709,��쓌,11.7,��
2019/06/18,12:00,0.746,1.068,0.727,1.326,0.965,0.432,0.748,0.708,��쓌,12.8,��
2019/06/18,12:10,0.748,1.071,0.727,1.326,0.964,0.432,0.750,0.708,��쓌,11.7,��
2019/06/18,12:20,0.748,1.067,0.730,1.325,0.966,0.434,0.750,0.708,��쓌,11.7,��
2019/06/18,12:30,0.748,1.072,0.729,1.325,0.966,0.433,0.748,0.709,��쓌,13.3,��
2019/06/18,12:40,0.750,1.073,0.729,1.326,0.966,0.433,0.749,0.708,��쓌,12.4,��
2019/06/18,12:50,0.749,1.072,0.728,1.326,0.966,0.432,0.747,0.708,��쓌,11.0,��
2019/06/18,13:00,0.750,1.071,0.729,1.326,0.967,0.436,0.750,0.710,��쓌,12.0,��
2019/06/18,13:10,0.749,1.072,0.729,1.326,0.966,0.433,0.751,0.707,��쓌,11.6,��
2019/06/18,13:20,0.750,1.073,0.729,1.329,0.969,0.434,0.748,0.709,��쓌,13.0,��
2019/06/18,13:30,0.751,1.070,0.725,1.326,0.967,0.435,0.749,0.707,��쓌,11.7,��
2019/06/18,13:40,0.748,1.072,0.729,1.329,0.968,0.434,0.751,0.710,��,11.0,��
2019/06/18,13:50,0.749,1.070,0.729,1.329,0.967,0.433,0.748,0.710,��,12.7,��
2019/06/18,14:00,0.749,1.070,0.728,1.332,0.969,0.434,0.749,0.710,��,10.8,��
2019/06/18,14:10,0.748,1.068,0.728,1.329,0.969,0.433,0.749,0.709,��,12.7,��
2019/06/18,14:20,0.750,1.071,0.729,1.329,0.969,0.435,0.748,0.708,��,12.7,��
2019/06/18,14:30,0.751,1.072,0.727,1.325,0.971,0.435,0.749,0.709,��,10.2,��
2019/06/18,14:40,0.750,1.075,0.729,1.330,0.971,0.435,0.752,0.710,��,9.5,��
2019/06/18,14:50,0.749,1.074,0.731,1.328,0.970,0.435,0.750,0.709,��,13.0,��
2019/06/18,15:00,0.749,1.073,0.730,1.330,0.969,0.434,0.750,0.709,��쓌,13.8,��
2019/06/18,15:10,0.749,1.074,0.729,1.328,0.970,0.434,0.748,0.708,��,13.6,��
2019/06/18,15:20,0.750,1.072,0.728,1.329,0.969,0.434,0.751,0.708,��쓌,13.0,��
2019/06/18,15:30,0.751,1.073,0.730,1.331,0.971,0.434,0.750,0.710,��쓌,13.5,��
2019/06/18,15:40,0.751,1.075,0.730,1.326,0.970,0.434,0.750,0.711,��,13.0,��
2019/06/18,15:50,0.750,1.076,0.731,1.332,0.970,0.435,0.748,0.710,��쓌,12.0,��
2019/06/18,16:00,0.749,1.077,0.730,1.332,0.969,0.434,0.750,0.710,��,11.0,��
2019/06/18,16:10,0.751,1.077,0.731,1.330,0.971,0.434,0.749,0.710,��,9.2,��
2019/06/18,16:20,0.751,1.075,0.729,1.331,0.969,0.434,0.749,0.710,��,9.2,��
2019/06/18,16:30,0.750,1.076,0.730,1.334,0.972,0.434,0.749,0.708,��,9.3,��
2019/06/18,16:40,0.749,1.077,0.730,1.330,0.970,0.434,0.748,0.709,��,13.8,��
2019/06/18,16:50,0.749,1.077,0.729,1.331,0.972,0.434,0.749,0.710,��쓌,13.5,��
2019/06/18,17:00,0.752,1.076,0.730,1.330,0.970,0.434,0.748,0.709,��,11.7,��
2019/06/18,17:10,0.752,1.077,0.728,1.331,0.973,0.434,0.748,0.710,��,11.7,��
2019/06/18,17:20,0.752,1.075,0.729,1.333,0.970,0.433,0.750,0.709,��,9.8,��
2019/06/18,17:30,0.753,1.078,0.730,1.335,0.970,0.433,0.750,0.708,��,11.1,�L
2019/06/18,17:40,0.750,1.077,0.729,1.336,0.971,0.433,0.748,0.711,��쓌,10.8,�L
2019/06/18,17:50,0.751,1.077,0.730,1.336,0.970,0.433,0.749,0.708,��,10.2,�L
2019/06/18,18:00,0.751,1.077,0.731,1.334,0.970,0.433,0.748,0.710,��,10.9,��
2019/06/18,18:10,0.751,1.079,0.730,1.335,0.970,0.433,0.748,0.709,��,11.0,��
2019/06/18,18:20,0.749,1.078,0.730,1.336,0.971,0.433,0.750,0.711,��,9.9,��
2019/06/18,18:30,0.752,1.078,0.730,1.335,0.971,0.433,0.750,0.712,��,9.4,��
2019/06/18,18:40,0.751,1.078,0.730,1.335,0.972,0.433,0.749,0.713,��,8.5,��
2019/06/18,18:50,0.751,1.077,0.729,1.334,0.970,0.433,0.751,0.711,��,7.9,��
2019/06/18,19:00,0.749,1.077,0.731,1.336,0.972,0.433,0.749,0.712,��,7.6,��
2019/06/18,19:10,0.750,1.079,0.731,1.334,0.969,0.436,0.750,0.711,��쐼,5.3,��
2019/06/18,19:20,0.750,1.081,0.732,1.334,0.970,0.434,0.752,0.712,��,5.0,��
2019/06/18,19:30,0.751,1.080,0.733,1.336,0.973,0.434,0.748,0.710,��,4.5,��
2019/06/18,19:40,0.752,1.082,0.734,1.338,0.973,0.435,0.752,0.711,��,4.7,��
2019/06/18,19:50,0.751,1.078,0.735,1.335,0.973,0.435,0.752,0.713,��,6.7,��
2019/06/18,20:00,0.750,1.081,0.734,1.338,0.973,0.433,0.750,0.712,��,6.6,��
2019/06/18,20:10,0.751,1.079,0.735,1.338,0.972,0.433,0.751,0.714,��,7.5,��
2019/06/18,20:20,0.748,1.079,0.736,1.338,0.973,0.434,0.751,0.713,��,6.9,��
2019/06/18,20:30,0.752,1.082,0.735,1.334,0.971,0.433,0.751,0.712,��,6.7,��
2019/06/18,20:40,0.749,1.081,0.732,1.336,0.973,0.435,0.752,0.712,��,7.1,��
2019/06/18,20:50,0.751,1.079,0.734,1.337,0.975,0.434,0.750,0.713,��,7.5,��
2019/06/18,21:00,0.751,1.081,0.734,1.334,0.971,0.435,0.750,0.713,��,6.8,��
2019/06/18,21:10,0.749,1.080,0.733,1.335,0.974,0.435,0.750,0.713,��,6.9,��
2019/06/18,21:20,0.750,1.081,0.732,1.336,0.972,0.436,0.754,0.711,��,5.6,��
2019/06/18,21:30,0.750,1.080,0.732,1.335,0.973,0.436,0.753,0.713,��,4.7,��
2019/06/18,21:40,0.750,1.082,0.733,1.335,0.974,0.435,0.750,0.711,��쐼,4.7,��
2019/06/18,21:50,0.752,1.081,0.733,1.336,0.972,0.435,0.751,0.712,��쐼,4.6,�L
2019/06/18,22:00,0.749,1.077,0.732,1.334,0.973,0.435,0.749,0.712,��쐼,5.2,�L
2019/06/18,22:10,0.749,1.074,0.731,1.336,0.973,0.433,0.750,0.710,�쐼,5.2,�L
2019/06/18,22:20,0.745,1.071,0.732,1.334,0.968,0.434,0.750,0.711,�쐼,5.6,�L
2019/06/18,22:30,0.746,1.071,0.732,1.332,0.969,0.435,0.750,0.711,�쐼,6.2,�L
2019/06/18,22:40,0.744,1.070,0.732,1.334,0.966,0.432,0.747,0.710,�쐼,5.4,�L
2019/06/18,22:50,0.745,1.063,0.729,1.334,0.963,0.434,0.747,0.709,�쐼,6.3,�L
2019/06/18,23:00,0.746,1.062,0.732,1.329,0.964,0.434,0.746,0.708,�쐼,6.0,�L
2019/06/18,23:10,0.745,1.064,0.729,1.330,0.965,0.434,0.747,0.707,�쐼,4.6,�L
2019/06/18,23:20,0.744,1.065,0.730,1.332,0.966,0.435,0.746,0.706,��쐼,4.3,�L
2019/06/18,23:30,0.744,1.067,0.730,1.330,0.967,0.433,0.748,0.708,��쐼,5.3,�L
2019/06/18,23:40,0.744,1.064,0.729,1.329,0.965,0.434,0.747,0.708,��쐼,5.7,�L
2019/06/18,23:50,0.744,1.063,0.729,1.329,0.961,0.433,0.748,0.707,��쐼,6.1,�L
